Regional Weather Roundup
Issued by NWS

Home | Current Version | Previous Version | Graphics & Text | Print | Product List | Glossary Off
Versions: 1 2 3 4 5 6 7 8 9 10 11 12 13 14 15 16 17 18 19 20 21 22 23 24 25 26 27 28 29 30 31 32 33 34 35 36 37 38 39 40 41 42 43 44 45 46 47 48 49 50

000
ASUS43 KMPX 272201
RWRMN
WEATHER ROUNDUP FOR MINNESOTA
NATIONAL WEATHER SERVICE TWIN CITIES/CHANHASSEN MN
500 PM CDT TUE SEP 27 2016


NOTE: "FAIR" INDICATES FEW OR NO CLOUDS BELOW 12,000 FEET WITH NO
SIGNIFICANT WEATHER AND/OR OBSTRUCTIONS TO VISIBILITY. N/A MEANS
CURRENT SKY AND/OR WEATHER CONDITIONS ARE NOT AVAILABLE.

MNZ060>063-068>070-272300-
   Twin Cities Metro

CITY           SKY/WX    TMP DP  RH WIND       PRES   REMARKS
TWIN CITIES    LGT RAIN  55  42  61 N15G24    29.80R
ST PAUL        LGT RAIN  53  45  74 NW15      29.82R
CRYSTAL        LGT RAIN  53  43  68 N12G20    29.81R
BLAINE         CLOUDY    54  46  76 NW12G17   29.81R
LAKEVILLE      CLOUDY    57  43  58 NW14      29.78S
EDEN PRAIRIE   CLOUDY    59  43  55 N13       29.78S
LAKEVILLE      CLOUDY    57  43  58 NW14      29.78S
SOUTH ST PAUL  LGT RAIN  55  43  66 NW13      29.80R
LAKE ELMO      LGT RAIN  52  46  82 NW7       29.82R
$$
MNZ001>005-007-008-013>017-022>024-027-028-272300-
   Northwest Minnesota

CITY           SKY/WX    TMP DP  RH WIND       PRES   REMARKS
BEMIDJI        CLOUDY    46  45  94 N10       29.87R
HALLOCK        CLOUDY    55  46  71 N12       29.92R
ROSEAU         CLOUDY    52  43  71 N9        29.91R
WARROAD        CLOUDY    52  43  71 N10G16    29.91R
THIEF RVR FALL   N/A     52  44  74 N17       29.91R
CROOKSTON      CLOUDY    55  45  67 N16G22    29.91R
FOSSTON        CLOUDY    48  43  81 N15G21    29.90R
DETROIT LAKES  CLOUDY    52  43  71 N16G24    29.89R
MOORHEAD       SUNNY     61  43  51 N17       29.89R
PARK RAPIDS    CLOUDY    49  44  83 NW13      29.86R
MAHNOMEN       CLOUDY    51  43  74 N21       29.89R
$$
MNZ006-009>011-018-025>026-272300-
   North Central Minnesota

CITY           SKY/WX    TMP DP  RH WIND       PRES   REMARKS
BAUDETTE       LGT RAIN  50  44  80 N14       29.87R
FLAG ISLAND    PTSUNNY   52  43  71 N14       29.88R
INTL FALLS     CLOUDY    51  44  77 N15       29.83R
WASKISH        PTSUNNY   48  46  93 N8        29.87R
BIG FORK       CLOUDY    48  45  87 N6        29.83R
GRAND RAPIDS   CLOUDY    47  45  93 NW13      29.83R
ORR            PTSUNNY   50  45  81 NW7       29.78R
COOK           PTSUNNY   48  45  87 NW7       29.80R
WALKER         CLOUDY    46  44  93 NW12G17   29.85R FOG
$$
MNZ012-019>021-037-272300-
   Northeast Minnesota

CITY           SKY/WX    TMP DP  RH WIND       PRES   REMARKS
DULUTH         CLOUDY    48  45  89 NW14      29.74R
ELY            CLOUDY    48  45  87 NW6       29.76R
HIBBING        CLOUDY    47  44  90 NW10      29.79R
EVELETH        PTSUNNY   50  45  83 N8        29.79R
DULUTH HARBOR  CLOUDY    48  46  93 NW12      29.76S
TWO HARBORS    CLOUDY    54  45  71 NW12G22   29.70R
SILVER BAY     CLOUDY    52  45  76 N10G24    29.70R
GRAND MARAIS     N/A     56  47  71 N17G30    29.64F
G MARAIS ARPRT CLOUDY    48  43  81 NW9G17    29.70R
$$
MNZ029>031-032-039>041-046>048-054>057-064-272300-
   West Central Minnesota

CITY           SKY/WX    TMP DP  RH WIND       PRES   REMARKS
FERGUS FALLS   CLOUDY    59  41  51 N10G28    29.88R
MORRIS         CLOUDY    66  34  30 N23G29    29.83S
ALEXANDRIA     CLOUDY    57  42  57 N14       29.85R
ELBOW LAKE     FAIR      60  38  44 NW17G24   29.85S
WADENA         CLOUDY    50  43  76 N9        29.86R
GLENWOOD       CLOUDY    57  39  51 NW16      29.84S
BENSON         CLOUDY    63  28  27 N12G23    29.83S
ORTONVILLE     SUNNY     68  27  21 NW18G24   29.84S
MADISON        SUNNY     70  27  19 N18G26    29.84S
WILLMAR        FAIR      63  39  42 NW16G23   29.83S
$$
MNZ033>034-036-042>043-049>051-058-059-272300-
   Central Minnesota

CITY           SKY/WX    TMP DP  RH WIND       PRES   REMARKS
ST CLOUD       LGT RAIN  51  45  79 N10       29.83R
SAUK CENTRE    FAIR      55  43  63 N15       29.84R
PAYNESVILLE    CLOUDY    57  41  54 N10       29.83R
AITKIN         MIX PCPN  50  45  81 NW8       29.81R
PINE RIVER     DRIZZLE   48  46  93 N10G23    29.87R
BRAINERD       CLOUDY    49  46  90 NW12      29.83R
STAPLES        RAIN      46  45  93 NW8       29.86R
LONG PRAIRIE   CLOUDY    52  41  66 NW10      29.84R
LITTLE FALLS   RAIN      48  45  87 NW8       29.85R
LITCHFIELD     CLOUDY    61  39  44 NW10G23   29.82S
BUFFALO        LGT RAIN  55  41  60 NW12G20   29.82R
MAPLE LAKE     CLOUDY    56  44  64 NW13G21   29.83R
HUTCHINSON     MOSUNNY   61  39  44 NW13G18   29.82S
$$
MNZ037-044-045-052-053-272300-
   East Central Minnesota

CITY           SKY/WX    TMP DP  RH WIND       PRES   REMARKS
PRINCETON      LGT RAIN  52  46  82 W9        29.82R
MORA           LGT RAIN  46  43  87 NW9G16    29.82R
CAMBRIDGE      LGT RAIN  52  43  71 W8        29.79S
MOOSE LAKE     DRIZZLE   46  43  87 N5        29.78R
HINCKLEY       LGT RAIN  48  45  87 N8G18     29.80R
CLOQUET        RAIN      46  45  93 NW9       29.77R
MCGREGOR       CLOUDY    48  45  87 NW9       29.81R
$$
MNZ071>073-080-081-089-090-097-098-272300-
   Southwest Minnesota

CITY           SKY/WX    TMP DP  RH WIND       PRES   REMARKS
MONTEVIDEO     CLOUDY    68  32  26 N13G22    29.85S
GRANITE FALLS  CLOUDY    68  32  26 NW16G25   29.85S
CANBY          SUNNY     69  32  25 W16G26    29.85F
MARSHALL       CLOUDY    70  33  25 NW23      29.83
REDWOOD FALLS  CLOUDY    66  32  28 NW16G24   29.82S
OLIVIA         CLOUDY    63  34  34 N13       29.82R
PIPESTONE      SUNNY     70  30  23 NW16G26   29.87S
WINDOM         SUNNY     70  21  16 NW22G29   29.82S
WORTHINGTON    SUNNY     68  39  34 NW23G29   29.85S
JACKSON        SUNNY     70  23  17 NW17G24   29.83S
TRACY          SUNNY     71  31  22 NW22G28   29.84S
$$
MNZ065>067-074>077-082>085-091>093-272300-
   South Central Minnesota

CITY           SKY/WX    TMP DP  RH WIND       PRES   REMARKS
MANKATO        CLOUDY    63  35  35 NW15      29.80S
ST JAMES       SUNNY     70  30  23 W12G21    29.82S
FAIRMONT       MOSUNNY   69  31  24 NW13G24   29.81F
GLENCOE        CLOUDY    61  41  47 NW12      29.80S
FARIBAULT      CLOUDY    61  36  39 NW10G23   29.79S
OWATONNA       CLOUDY    61  36  39 NW18      29.79S
WASECA         CLOUDY    63  34  34 NW13G21   29.80S
ALBERT LEA     MOSUNNY   66  30  26 NW13G23   29.79S
$$
MNZ078>079-086>088-094>096-272300-
   Southeast Minnesota

CITY           SKY/WX    TMP DP  RH WIND       PRES   REMARKS
ROCHESTER      PTSUNNY   62  35  36 NW18G26   29.78R
RED WING       LGT RAIN  55  43  62 N7        29.77S
STANTON        CLOUDY    60  40  48 NW10G18   29.77S
DODGE CENTER   PTSUNNY   61  34  36 NW17G25   29.78S
WINONA         PTSUNNY   57  43  58 NW12G17   29.77R
AUSTIN         MOSUNNY   63  34  34 NW15      29.78S
PRESTON        PTSUNNY   60  33  35 NW18G29   29.77S
$$
ABBREVIATIONS USED IN REMARKS
   TC - TEMPERATURES IN CELSIUS
  WCI - WIND CHILL INDEX
   HX - HEAT INDEX
  VSB - VISIBILITY
$$



USA.gov is the U.S. government's official web portal to all federal, state and local government web resources and services.